This is the latest recevied weather packets stored in our database for station/object DG6YGE-6. If no packets are shown the sender has not sent any weather packets the latest 10 day(s).
| Time | Temp. | Humidity | Pressure | Rain* | Wind** | Luminosity | Snow |
|---|---|---|---|---|---|---|---|
| 1777883953 | 18.33° C | 74% | 1012.3 hPa | 0 mm | - | 500 W/m² | - |
| 1777883354 | 18.89° C | 73% | 1012.3 hPa | 0 mm | - | 417 W/m² | - |
| 1777882753 | 18.89° C | 74% | 1012.3 hPa | 0 mm | - | 483 W/m² | - |
| 1777882153 | 17.78° C | 77% | 1012.3 hPa | 0 mm | - | 660 W/m² | - |
| 1777881554 | 17.22° C | 79% | 1012.2 hPa | 0 mm | - | 514 W/m² | - |
| 1777880954 | 16.67° C | 80% | 1012.2 hPa | 0 mm | - | 340 W/m² | - |
| 1777880353 | 16.67° C | 80% | 1012.2 hPa | 0 mm | - | 301 W/m² | - |
| 1777879753 | 16.11° C | 81% | 1012.2 hPa | 0 mm | - | 263 W/m² | - |
| 1777879154 | 15.56° C | 83% | 1012.2 hPa | 0 mm | - | 259 W/m² | - |
| 1777878553 | 15.56° C | 83% | 1012 hPa | 0 mm | - | 287 W/m² | - |
| 1777877954 | 15.56° C | 83% | 1011.9 hPa | 0 mm | - | 104 W/m² | - |
| 1777877353 | 15° C | 84% | 1011.9 hPa | 0 mm | - | 383 W/m² | - |
| 1777876754 | 15° C | 84% | 1011.8 hPa | 0 mm | - | 211 W/m² | - |
| 1777876153 | 15° C | 85% | 1011.7 hPa | 0 mm | - | 254 W/m² | - |
| 1777875553 | 14.44° C | 84% | 1011.6 hPa | 0 mm | - | 272 W/m² | - |
| 1777874953 | 14.44° C | 84% | 1011.5 hPa | 0 mm | - | 237 W/m² | - |
| 1777874354 | 14.44° C | 84% | 1011.4 hPa | 0 mm | - | 198 W/m² | - |
| 1777873753 | 14.44° C | 84% | 1011.4 hPa | 0 mm | - | 125 W/m² | - |
| 1777873153 | 14.44° C | 84% | 1011.3 hPa | 0 mm | - | 167 W/m² | - |
| 1777872553 | 14.44° C | 84% | 1011.1 hPa | 0 mm | - | 78 W/m² | - |
| 1777871954 | 14.44° C | 85% | 1011.1 hPa | 0 mm | - | 85 W/m² | - |
| 1777871353 | 14.44° C | 85% | 1011 hPa | 0 mm | - | 88 W/m² | - |
| 1777870753 | 14.44° C | 85% | 1010.6 hPa | 0 mm | - | 92 W/m² | - |
| 1777870154 | 14.44° C | 85% | 1011 hPa | 0 mm | - | 41 W/m² | - |
| 1777869554 | 14.44° C | 85% | 1011.2 hPa | 0 mm | - | 23 W/m² | - |
* Rain latest hour (hover to see other rain measurements)
** Current wind speed in m/s (hover to see current wind gust speed)